{"data":{"norad_id":43078,"epoch":"2026-09-19T23:16:39.252000Z","epoch_age_seconds":61327,"freshness":"FRESH","line1":"1 43078U 17083J   26262.96989875  .00000022  00000+0  95573-6 0  9998","line2":"2 43078  86.3918 250.8231 0002411  86.9404 273.2067 14.34217335458860","mean_motion":14.34217335,"eccentricity":0.0002411,"inclination_deg":86.3918,"raan_deg":250.8231,"arg_perigee_deg":86.9404,"mean_anomaly_deg":273.2067,"bstar":9.5573e-7,"rev_number":45886,"period_min":100.40319307673,"perigee_km":775.94327002426,"apogee_km":779.39379945311,"semimajor_km":7155.8055347387,"source":"CELESTRAK","updated_at":"2026-09-20T09:00:36.327993Z"}}